Year,Month,Day,Hour,Minute,Value (Times are PST for temperature in C)
2018,04,26,00,00,10.60
2018,04,26,00,01,10.50
2018,04,26,00,02,10.50
2018,04,26,00,03,10.40
2018,04,26,00,04,10.40
2018,04,26,00,05,10.30
2018,04,26,00,06,10.30
2018,04,26,00,07,10.20
2018,04,26,00,08,10.20
2018,04,26,00,09,10.10
2018,04,26,00,10,10.00
2018,04,26,00,11,10.00
2018,04,26,00,12,9.90
2018,04,26,00,13,9.90
2018,04,26,00,14,9.80
2018,04,26,00,15,9.80
2018,04,26,00,16,9.70
2018,04,26,00,17,9.70
2018,04,26,00,18,9.60
2018,04,26,00,19,9.60
2018,04,26,00,20,9.60
2018,04,26,00,21,9.50
2018,04,26,00,22,9.50
2018,04,26,00,23,9.40
2018,04,26,00,24,9.40
2018,04,26,00,25,9.40
2018,04,26,00,26,9.40
2018,04,26,00,27,9.40
2018,04,26,00,28,9.40
2018,04,26,00,29,9.40
2018,04,26,00,30,9.40
2018,04,26,00,31,9.30
2018,04,26,00,32,9.30
2018,04,26,00,33,9.30
2018,04,26,00,34,9.30
2018,04,26,00,35,9.30
2018,04,26,00,36,9.30
2018,04,26,00,37,9.30
2018,04,26,00,38,9.30
2018,04,26,00,39,9.30
2018,04,26,00,40,9.30
2018,04,26,00,41,9.30
2018,04,26,00,42,9.40
2018,04,26,00,43,9.40
2018,04,26,00,44,9.40
2018,04,26,00,45,9.40
2018,04,26,00,46,9.50
2018,04,26,00,47,9.50
2018,04,26,00,48,9.50
2018,04,26,00,49,9.50
2018,04,26,00,50,9.50
2018,04,26,00,51,9.50
2018,04,26,00,52,9.40
2018,04,26,00,53,9.40
2018,04,26,00,54,9.40
2018,04,26,00,55,9.30
2018,04,26,00,56,9.30
2018,04,26,00,57,9.30
2018,04,26,00,58,9.20
2018,04,26,00,59,9.20
2018,04,26,01,00,9.20
2018,04,26,01,01,9.20
2018,04,26,01,02,9.20
2018,04,26,01,03,9.20
2018,04,26,01,04,9.30
2018,04,26,01,05,9.30
2018,04,26,01,06,9.30
2018,04,26,01,07,9.30
2018,04,26,01,08,9.30
2018,04,26,01,09,9.30
2018,04,26,01,10,9.30
2018,04,26,01,11,9.20
2018,04,26,01,12,9.20
2018,04,26,01,13,9.20
2018,04,26,01,14,9.20
2018,04,26,01,15,9.10
2018,04,26,01,16,9.10
2018,04,26,01,17,9.10
2018,04,26,01,18,9.00
2018,04,26,01,19,9.00
2018,04,26,01,20,8.90
2018,04,26,01,21,8.90
2018,04,26,01,22,8.90
2018,04,26,01,23,8.80
2018,04,26,01,24,8.80
2018,04,26,01,25,8.80
2018,04,26,01,26,8.80
2018,04,26,01,27,8.80
2018,04,26,01,28,8.80
2018,04,26,01,29,8.70
2018,04,26,01,30,8.70
2018,04,26,01,31,8.70
2018,04,26,01,32,8.60
2018,04,26,01,33,8.60
2018,04,26,01,34,8.60
2018,04,26,01,35,8.60
2018,04,26,01,36,8.50
2018,04,26,01,37,8.50
2018,04,26,01,38,8.40
2018,04,26,01,39,8.40
2018,04,26,01,40,8.40
2018,04,26,01,41,8.40
2018,04,26,01,42,8.30
2018,04,26,01,43,8.30
2018,04,26,01,44,8.30
2018,04,26,01,45,8.30
2018,04,26,01,46,8.30
2018,04,26,01,47,8.20
2018,04,26,01,48,8.20
2018,04,26,01,49,8.20
2018,04,26,01,50,8.20
2018,04,26,01,51,8.20
2018,04,26,01,52,8.20
2018,04,26,01,53,8.10
2018,04,26,01,54,8.10
2018,04,26,01,55,8.10
2018,04,26,01,56,8.10
2018,04,26,01,57,8.10
2018,04,26,01,58,8.10
2018,04,26,01,59,8.10
2018,04,26,02,00,8.10
2018,04,26,02,01,8.10
2018,04,26,02,02,8.10
2018,04,26,02,03,8.10
2018,04,26,02,04,8.10
2018,04,26,02,05,8.10
2018,04,26,02,06,8.10
2018,04,26,02,07,8.10
2018,04,26,02,08,8.10
2018,04,26,02,09,8.10
2018,04,26,02,10,8.10
2018,04,26,02,11,8.10
2018,04,26,02,12,8.10
2018,04,26,02,13,8.00
2018,04,26,02,14,8.00
2018,04,26,02,15,7.90
2018,04,26,02,16,7.90
2018,04,26,02,17,7.90
2018,04,26,02,18,7.80
2018,04,26,02,19,7.80
2018,04,26,02,20,7.80
2018,04,26,02,21,7.80
2018,04,26,02,22,7.70
2018,04,26,02,23,7.70
2018,04,26,02,24,7.70
2018,04,26,02,25,7.70
2018,04,26,02,26,7.60
2018,04,26,02,27,7.60
2018,04,26,02,28,7.60
2018,04,26,02,29,7.60
2018,04,26,02,30,7.60
2018,04,26,02,31,7.60
2018,04,26,02,32,7.50
2018,04,26,02,33,7.50
2018,04,26,02,34,7.50
2018,04,26,02,35,7.50
2018,04,26,02,36,7.50
2018,04,26,02,37,7.50
2018,04,26,02,38,7.50
2018,04,26,02,39,7.50
2018,04,26,02,40,7.50
2018,04,26,02,41,7.60
2018,04,26,02,42,7.60
2018,04,26,02,43,7.60
2018,04,26,02,44,7.60
2018,04,26,02,45,7.60
2018,04,26,02,46,7.60
2018,04,26,02,47,7.60
2018,04,26,02,48,7.70
2018,04,26,02,49,7.70
2018,04,26,02,50,7.70
2018,04,26,02,51,7.70
2018,04,26,02,52,7.70
2018,04,26,02,53,7.70
2018,04,26,02,54,7.70
2018,04,26,02,55,7.60
2018,04,26,02,56,7.60
2018,04,26,02,57,7.60
2018,04,26,02,58,7.60
2018,04,26,02,59,7.60
2018,04,26,03,00,7.60
2018,04,26,03,01,7.50
2018,04,26,03,02,7.50
2018,04,26,03,03,7.50
2018,04,26,03,04,7.40
2018,04,26,03,05,7.40
2018,04,26,03,06,7.40
2018,04,26,03,07,7.40
2018,04,26,03,08,7.40
2018,04,26,03,09,7.40
2018,04,26,03,10,7.40
2018,04,26,03,11,7.30
2018,04,26,03,12,7.30
2018,04,26,03,13,7.30
2018,04,26,03,14,7.30
2018,04,26,03,15,7.30
2018,04,26,03,16,7.30
2018,04,26,03,17,7.30
2018,04,26,03,18,7.30
2018,04,26,03,19,7.30
2018,04,26,03,20,7.30
2018,04,26,03,21,7.30
2018,04,26,03,22,7.30
2018,04,26,03,23,7.30
2018,04,26,03,24,7.30
2018,04,26,03,25,7.30
2018,04,26,03,26,7.30
2018,04,26,03,27,7.30
2018,04,26,03,28,7.30
2018,04,26,03,29,7.30
2018,04,26,03,30,7.30
2018,04,26,03,31,7.30
2018,04,26,03,32,7.30
2018,04,26,03,33,7.30
2018,04,26,03,34,7.40
2018,04,26,03,35,7.40
2018,04,26,03,36,7.60
2018,04,26,03,37,7.70
2018,04,26,03,38,7.80
2018,04,26,03,39,7.90
2018,04,26,03,40,8.10
2018,04,26,03,41,8.20
2018,04,26,03,42,8.30
2018,04,26,03,43,8.40
2018,04,26,03,44,8.40
2018,04,26,03,45,8.40
2018,04,26,03,46,8.40
2018,04,26,03,47,8.30
2018,04,26,03,48,8.30
2018,04,26,03,49,8.20
2018,04,26,03,50,8.10
2018,04,26,03,51,8.10
2018,04,26,03,52,8.00
2018,04,26,03,53,7.90
2018,04,26,03,54,7.90
2018,04,26,03,55,8.00
2018,04,26,03,56,8.00
2018,04,26,03,57,8.10
2018,04,26,03,58,8.10
2018,04,26,03,59,8.20
2018,04,26,04,00,8.20
2018,04,26,04,01,8.20
2018,04,26,04,02,8.20
2018,04,26,04,03,8.10
2018,04,26,04,04,8.10
2018,04,26,04,05,8.00
2018,04,26,04,06,8.10
2018,04,26,04,07,8.10
2018,04,26,04,08,8.10
2018,04,26,04,09,8.20
2018,04,26,04,10,8.40
2018,04,26,04,11,8.50
2018,04,26,04,12,8.60
2018,04,26,04,13,8.80
2018,04,26,04,14,8.90
2018,04,26,04,15,9.10
2018,04,26,04,16,9.30
2018,04,26,04,17,9.60
2018,04,26,04,18,9.80
2018,04,26,04,19,10.00
2018,04,26,04,20,10.20
2018,04,26,04,21,10.40
2018,04,26,04,22,10.60
2018,04,26,04,23,10.70
2018,04,26,04,24,10.80
2018,04,26,04,25,10.90
2018,04,26,04,26,11.00
2018,04,26,04,27,11.10
2018,04,26,04,28,11.10
2018,04,26,04,29,11.10
2018,04,26,04,30,11.10
2018,04,26,04,31,11.10
2018,04,26,04,32,11.00
2018,04,26,04,33,11.00
2018,04,26,04,34,11.00
2018,04,26,04,35,11.00
2018,04,26,04,36,11.00
2018,04,26,04,37,11.00
2018,04,26,04,38,11.00
2018,04,26,04,39,10.90
2018,04,26,04,40,10.90
2018,04,26,04,41,10.90
2018,04,26,04,42,10.90
2018,04,26,04,43,10.90
2018,04,26,04,44,10.90
2018,04,26,04,45,10.90
2018,04,26,04,46,10.80
2018,04,26,04,47,10.80
2018,04,26,04,48,10.80
2018,04,26,04,49,10.80
2018,04,26,04,50,10.80
2018,04,26,04,51,10.60
2018,04,26,04,52,10.60
2018,04,26,04,53,10.50
2018,04,26,04,54,10.50
2018,04,26,04,55,10.40
2018,04,26,04,56,10.40
2018,04,26,04,57,10.20
2018,04,26,04,58,10.10
2018,04,26,04,59,10.00
2018,04,26,05,00,10.00
2018,04,26,05,01,9.90
2018,04,26,05,02,9.80
2018,04,26,05,03,9.80
2018,04,26,05,04,9.70
2018,04,26,05,05,9.70
2018,04,26,05,06,9.60
2018,04,26,05,07,9.60
2018,04,26,05,08,9.50
2018,04,26,05,09,9.50
2018,04,26,05,10,9.40
2018,04,26,05,11,9.30
2018,04,26,05,12,9.30
2018,04,26,05,13,9.20
2018,04,26,05,14,9.20
2018,04,26,05,15,9.10
2018,04,26,05,16,9.00
2018,04,26,05,17,9.00
2018,04,26,05,18,9.00
2018,04,26,05,19,9.00
2018,04,26,05,20,9.00
2018,04,26,05,21,9.00
2018,04,26,05,22,9.00
2018,04,26,05,23,9.10
2018,04,26,05,24,9.10
2018,04,26,05,25,9.10
2018,04,26,05,26,9.10
2018,04,26,05,27,9.10
2018,04,26,05,28,9.00
2018,04,26,05,29,8.90
2018,04,26,05,30,8.90
2018,04,26,05,31,8.90
2018,04,26,05,32,8.90
2018,04,26,05,33,9.10
2018,04,26,05,34,9.40
2018,04,26,05,35,9.70
2018,04,26,05,36,9.90
2018,04,26,05,37,10.20
2018,04,26,05,38,10.30
2018,04,26,05,39,10.40
2018,04,26,05,40,10.50
2018,04,26,05,41,10.60
2018,04,26,05,42,10.60
2018,04,26,05,43,10.70
2018,04,26,05,44,10.70
2018,04,26,05,45,10.70
2018,04,26,05,46,10.70
2018,04,26,05,47,10.70
2018,04,26,05,48,10.70
2018,04,26,05,49,10.70
2018,04,26,05,50,10.60
2018,04,26,05,51,10.60
2018,04,26,05,52,10.60
2018,04,26,05,53,10.50
2018,04,26,05,54,10.40
2018,04,26,05,55,10.40
2018,04,26,05,56,10.30
2018,04,26,05,57,10.30
2018,04,26,05,58,10.20
2018,04,26,05,59,10.10
2018,04,26,06,00,10.00
2018,04,26,06,01,10.00
2018,04,26,06,02,9.90
2018,04,26,06,03,9.90
2018,04,26,06,04,9.90
2018,04,26,06,05,9.90
2018,04,26,06,06,9.90
2018,04,26,06,07,9.80
2018,04,26,06,08,9.80
2018,04,26,06,09,9.80
2018,04,26,06,10,9.80
2018,04,26,06,11,9.80
2018,04,26,06,12,9.90
2018,04,26,06,13,9.90
2018,04,26,06,14,9.90
2018,04,26,06,15,9.90
2018,04,26,06,16,9.90
2018,04,26,06,17,9.80
2018,04,26,06,18,9.80
2018,04,26,06,19,9.80
2018,04,26,06,20,9.80
2018,04,26,06,21,9.80
2018,04,26,06,22,9.80
2018,04,26,06,23,9.80
2018,04,26,06,24,9.90
2018,04,26,06,25,9.80
2018,04,26,06,26,9.70
2018,04,26,06,27,9.60
2018,04,26,06,28,9.60
2018,04,26,06,29,9.40
2018,04,26,06,30,9.30
2018,04,26,06,31,9.20
2018,04,26,06,32,9.20
2018,04,26,06,33,9.20
2018,04,26,06,34,9.10
2018,04,26,06,35,9.10
2018,04,26,06,36,9.00
2018,04,26,06,37,9.00
2018,04,26,06,38,8.90
2018,04,26,06,39,8.90
2018,04,26,06,40,8.90
2018,04,26,06,41,8.90
2018,04,26,06,42,8.90
2018,04,26,06,43,8.90
2018,04,26,06,44,8.90
2018,04,26,06,45,8.90
2018,04,26,06,46,8.90
2018,04,26,06,47,8.90
2018,04,26,06,48,8.90
2018,04,26,06,49,8.90
2018,04,26,06,50,8.80
2018,04,26,06,51,8.80
2018,04,26,06,52,8.80
2018,04,26,06,53,8.90
2018,04,26,06,54,8.90
2018,04,26,06,55,9.00
2018,04,26,06,56,9.00
2018,04,26,06,57,9.10
2018,04,26,06,58,9.10
2018,04,26,06,59,9.20
2018,04,26,07,00,9.30
2018,04,26,07,01,9.30
2018,04,26,07,02,9.40
2018,04,26,07,03,9.50
2018,04,26,07,04,9.60
2018,04,26,07,05,9.70
2018,04,26,07,06,9.80
2018,04,26,07,07,10.00
2018,04,26,07,08,10.20
2018,04,26,07,09,10.40
2018,04,26,07,10,10.60
2018,04,26,07,11,10.80
2018,04,26,07,12,10.90
2018,04,26,07,13,11.10
2018,04,26,07,14,11.20
2018,04,26,07,15,11.40
2018,04,26,07,16,11.50
2018,04,26,07,17,11.60
2018,04,26,07,18,11.70
2018,04,26,07,19,11.80
2018,04,26,07,20,11.90
2018,04,26,07,21,12.00
2018,04,26,07,22,12.00
2018,04,26,07,23,12.10
2018,04,26,07,24,12.20
2018,04,26,07,25,12.30
2018,04,26,07,26,12.30
2018,04,26,07,27,12.40
2018,04,26,07,28,12.60
2018,04,26,07,29,12.70
2018,04,26,07,30,12.80
2018,04,26,07,31,12.80
2018,04,26,07,32,12.90
2018,04,26,07,33,13.00
2018,04,26,07,34,13.10
2018,04,26,07,35,13.20
2018,04,26,07,36,13.20
2018,04,26,07,37,13.30
2018,04,26,07,38,13.40
2018,04,26,07,39,13.40
2018,04,26,07,40,13.50
2018,04,26,07,41,13.50
2018,04,26,07,42,13.60
2018,04,26,07,43,13.60
2018,04,26,07,44,13.70
2018,04,26,07,45,13.70
2018,04,26,07,46,13.80
2018,04,26,07,47,13.80
2018,04,26,07,48,13.80
2018,04,26,07,49,13.80
2018,04,26,07,50,13.80
2018,04,26,07,51,13.80
2018,04,26,07,52,13.90
2018,04,26,07,53,13.90
2018,04,26,07,54,13.90
2018,04,26,07,55,14.00
2018,04,26,07,56,14.00
2018,04,26,07,57,14.10
2018,04,26,07,58,14.10
2018,04,26,07,59,14.10
2018,04,26,08,00,14.10
2018,04,26,08,01,14.10
2018,04,26,08,02,14.10
2018,04,26,08,03,14.10
2018,04,26,08,04,14.10
2018,04,26,08,05,14.10
2018,04,26,08,06,14.20
2018,04,26,08,07,14.20
2018,04,26,08,08,14.20
2018,04,26,08,09,14.30
2018,04,26,08,10,14.30
2018,04,26,08,11,14.30
2018,04,26,08,12,14.40
2018,04,26,08,13,14.40
2018,04,26,08,14,14.40
2018,04,26,08,15,14.50
2018,04,26,08,16,14.50
2018,04,26,08,17,14.60
2018,04,26,08,18,14.60
2018,04,26,08,19,14.60
2018,04,26,08,20,14.60
2018,04,26,08,21,14.70
2018,04,26,08,22,14.70
2018,04,26,08,23,14.70
2018,04,26,08,24,14.70
2018,04,26,08,25,14.70
2018,04,26,08,26,14.70
2018,04,26,08,27,14.70
2018,04,26,08,28,14.70
2018,04,26,08,29,14.70
2018,04,26,08,30,14.70
2018,04,26,08,31,14.80
2018,04,26,08,32,14.80
2018,04,26,08,33,14.80
2018,04,26,08,34,14.70
2018,04,26,08,35,14.80
2018,04,26,08,36,14.80
2018,04,26,08,37,14.80
2018,04,26,08,38,14.80
2018,04,26,08,39,14.80
2018,04,26,08,40,14.80
2018,04,26,08,41,14.80
2018,04,26,08,42,14.90
2018,04,26,08,43,15.00
2018,04,26,08,44,15.00
2018,04,26,08,45,15.00
2018,04,26,08,46,15.00
2018,04,26,08,47,15.00
2018,04,26,08,48,15.00
2018,04,26,08,49,15.00
2018,04,26,08,50,15.00
2018,04,26,08,51,15.00
2018,04,26,08,52,15.00
2018,04,26,08,53,15.00
2018,04,26,08,54,15.00
2018,04,26,08,55,15.00
2018,04,26,08,56,15.10
2018,04,26,08,57,15.10
2018,04,26,08,58,15.10
2018,04,26,08,59,15.20
2018,04,26,09,00,15.20
2018,04,26,09,01,15.30
2018,04,26,09,02,15.30
2018,04,26,09,03,15.30
2018,04,26,09,04,15.30
2018,04,26,09,05,15.30
2018,04,26,09,06,15.30
2018,04,26,09,07,15.30
2018,04,26,09,08,15.30
2018,04,26,09,09,15.30
2018,04,26,09,10,15.30
2018,04,26,09,11,15.30
2018,04,26,09,12,15.30
2018,04,26,09,13,15.20
2018,04,26,09,14,15.20
2018,04,26,09,15,15.20
2018,04,26,09,16,15.30
2018,04,26,09,17,15.30
2018,04,26,09,18,15.30
2018,04,26,09,19,15.30
2018,04,26,09,20,15.30
2018,04,26,09,21,15.30
2018,04,26,09,22,15.40
2018,04,26,09,23,15.50
2018,04,26,09,24,15.50
2018,04,26,09,25,15.60
2018,04,26,09,26,15.60
2018,04,26,09,27,15.60
2018,04,26,09,28,15.70
2018,04,26,09,29,15.70
2018,04,26,09,30,15.70
2018,04,26,09,31,15.70
2018,04,26,09,32,15.70
2018,04,26,09,33,15.80
2018,04,26,09,34,15.90
2018,04,26,09,35,15.90
2018,04,26,09,36,15.90
2018,04,26,09,37,15.90
2018,04,26,09,38,15.90
2018,04,26,09,39,16.00
2018,04,26,09,40,16.00
2018,04,26,09,41,16.10
2018,04,26,09,42,16.10
2018,04,26,09,43,16.10
2018,04,26,09,44,16.10
2018,04,26,09,45,16.10
2018,04,26,09,46,16.10
2018,04,26,09,47,16.10
2018,04,26,09,48,16.10
2018,04,26,09,49,16.10
2018,04,26,09,50,16.20
2018,04,26,09,51,16.20
2018,04,26,09,52,16.20
2018,04,26,09,53,16.30
2018,04,26,09,54,16.30
2018,04,26,09,55,16.30
2018,04,26,09,56,16.30
2018,04,26,09,57,16.30
2018,04,26,09,58,16.30
2018,04,26,09,59,16.40
2018,04,26,10,00,16.40
2018,04,26,10,01,16.50
2018,04,26,10,02,16.50
2018,04,26,10,03,16.60
2018,04,26,10,04,16.60
2018,04,26,10,05,16.60
2018,04,26,10,06,16.60
2018,04,26,10,07,16.60
2018,04,26,10,08,16.60
2018,04,26,10,09,16.60
2018,04,26,10,10,16.60
2018,04,26,10,11,16.60
2018,04,26,10,12,16.70
2018,04,26,10,13,16.70
2018,04,26,10,14,16.70
2018,04,26,10,15,16.80
2018,04,26,10,16,16.80
2018,04,26,10,17,16.70
2018,04,26,10,18,16.70
2018,04,26,10,19,16.70
2018,04,26,10,20,16.70
2018,04,26,10,21,16.60
2018,04,26,10,22,16.60
2018,04,26,10,23,16.60
2018,04,26,10,24,16.60
2018,04,26,10,25,16.60
2018,04,26,10,26,16.60
2018,04,26,10,27,16.60
2018,04,26,10,28,16.60
2018,04,26,10,29,16.70
2018,04,26,10,30,16.70
2018,04,26,10,31,16.70
2018,04,26,10,32,16.70
2018,04,26,10,33,16.80
2018,04,26,10,34,16.80
2018,04,26,10,35,16.80
2018,04,26,10,36,16.80
2018,04,26,10,37,16.90
2018,04,26,10,38,16.90
2018,04,26,10,39,17.00
2018,04,26,10,40,17.00
2018,04,26,10,41,17.00
2018,04,26,10,42,17.00
2018,04,26,10,43,17.00
2018,04,26,10,44,17.00
2018,04,26,10,45,17.10
2018,04,26,10,46,17.10
2018,04,26,10,47,17.10
2018,04,26,10,48,17.10
2018,04,26,10,49,17.10
2018,04,26,10,50,17.10
2018,04,26,10,51,17.20
2018,04,26,10,52,17.20
2018,04,26,10,53,17.20
2018,04,26,10,54,17.20
2018,04,26,10,55,17.20
2018,04,26,10,56,17.20
2018,04,26,10,57,17.10
2018,04,26,10,58,17.10
2018,04,26,10,59,17.20
2018,04,26,11,00,17.20
2018,04,26,11,01,17.30
2018,04,26,11,02,17.40
2018,04,26,11,03,17.50
2018,04,26,11,04,17.60
2018,04,26,11,05,17.70
2018,04,26,11,06,17.70
2018,04,26,11,07,17.80
2018,04,26,11,08,17.80
2018,04,26,11,09,17.80
2018,04,26,11,10,17.70
2018,04,26,11,11,17.60
2018,04,26,11,12,17.60
2018,04,26,11,13,17.60
2018,04,26,11,14,17.50
2018,04,26,11,15,17.40
2018,04,26,11,16,17.40
2018,04,26,11,17,17.30
2018,04,26,11,18,17.20
2018,04,26,11,19,17.10
2018,04,26,11,20,17.00
2018,04,26,11,21,16.90
2018,04,26,11,22,16.90
2018,04,26,11,23,16.90
2018,04,26,11,24,16.90
2018,04,26,11,25,17.00
2018,04,26,11,26,17.20
2018,04,26,11,27,17.30
2018,04,26,11,28,17.40
2018,04,26,11,29,17.50
2018,04,26,11,30,17.60
2018,04,26,11,31,17.60
2018,04,26,11,32,17.70
2018,04,26,11,33,17.70
2018,04,26,11,34,17.70
2018,04,26,11,35,17.80
2018,04,26,11,36,17.80
2018,04,26,11,37,17.80
2018,04,26,11,38,17.90
2018,04,26,11,39,17.90
2018,04,26,11,40,18.00
2018,04,26,11,41,18.00
2018,04,26,11,42,18.10
2018,04,26,11,43,18.10
2018,04,26,11,44,18.10
2018,04,26,11,45,18.10
2018,04,26,11,46,18.20
2018,04,26,11,47,18.20
2018,04,26,11,48,18.20
2018,04,26,11,49,18.30
2018,04,26,11,50,18.40
2018,04,26,11,51,18.40
2018,04,26,11,52,18.40
2018,04,26,11,53,18.30
2018,04,26,11,54,18.20
2018,04,26,11,55,18.10
2018,04,26,11,56,18.00
2018,04,26,11,57,17.90
2018,04,26,11,58,17.80
2018,04,26,11,59,17.80
2018,04,26,12,00,17.90
2018,04,26,12,01,18.00
2018,04,26,12,02,18.00
2018,04,26,12,03,18.10
2018,04,26,12,04,18.20
2018,04,26,12,05,18.20
2018,04,26,12,06,18.30
2018,04,26,12,07,18.40
2018,04,26,12,08,18.40
2018,04,26,12,09,18.40
2018,04,26,12,10,18.40
2018,04,26,12,11,18.40
2018,04,26,12,12,18.40
2018,04,26,12,13,18.40
2018,04,26,12,14,18.30
2018,04,26,12,15,18.30
2018,04,26,12,16,18.20
2018,04,26,12,17,18.10
2018,04,26,12,18,18.10
2018,04,26,12,19,18.20
2018,04,26,12,20,18.20
2018,04,26,12,21,18.30
2018,04,26,12,22,18.30
2018,04,26,12,23,18.40
2018,04,26,12,24,18.40
2018,04,26,12,25,18.50
2018,04,26,12,26,18.60
2018,04,26,12,27,18.70
2018,04,26,12,28,18.70
2018,04,26,12,29,18.80
2018,04,26,12,30,18.80
2018,04,26,12,31,18.80
2018,04,26,12,32,18.80
2018,04,26,12,33,18.80
2018,04,26,12,34,18.70
2018,04,26,12,35,18.70
2018,04,26,12,36,18.60
2018,04,26,12,37,18.60
2018,04,26,12,38,18.50
2018,04,26,12,39,18.50
2018,04,26,12,40,18.60
2018,04,26,12,41,18.70
2018,04,26,12,42,18.80
2018,04,26,12,43,18.90
2018,04,26,12,44,18.90
2018,04,26,12,45,18.90
2018,04,26,12,46,18.90
2018,04,26,12,47,18.90
2018,04,26,12,48,18.90
2018,04,26,12,49,18.90
2018,04,26,12,50,18.90
2018,04,26,12,51,18.90
2018,04,26,12,52,18.90
2018,04,26,12,53,18.90
2018,04,26,12,54,18.90
2018,04,26,12,55,18.90
2018,04,26,12,56,18.90
2018,04,26,12,57,19.00
2018,04,26,12,58,19.00
2018,04,26,12,59,19.10
2018,04,26,13,00,19.20
2018,04,26,13,01,19.20
2018,04,26,13,02,19.20
2018,04,26,13,03,19.30
2018,04,26,13,04,19.30
2018,04,26,13,05,19.30
2018,04,26,13,06,19.30
2018,04,26,13,07,19.30
2018,04,26,13,08,19.30
2018,04,26,13,09,19.30
2018,04,26,13,10,19.40
2018,04,26,13,11,19.40
2018,04,26,13,12,19.40
2018,04,26,13,13,19.30
2018,04,26,13,14,19.30
2018,04,26,13,15,19.20
2018,04,26,13,16,19.20
2018,04,26,13,17,19.20
2018,04,26,13,18,19.20
2018,04,26,13,19,19.20
2018,04,26,13,20,19.20
2018,04,26,13,21,19.30
2018,04,26,13,22,19.30
2018,04,26,13,23,19.30
2018,04,26,13,24,19.20
2018,04,26,13,25,19.20
2018,04,26,13,26,19.30
2018,04,26,13,27,19.30
2018,04,26,13,28,19.20
2018,04,26,13,29,19.20
2018,04,26,13,30,19.30
2018,04,26,13,31,19.40
2018,04,26,13,32,19.40
2018,04,26,13,33,19.30
2018,04,26,13,34,19.30
2018,04,26,13,35,19.20
2018,04,26,13,36,19.20
2018,04,26,13,37,19.20
2018,04,26,13,38,19.30
2018,04,26,13,39,19.40
2018,04,26,13,40,19.40
2018,04,26,13,41,19.60
2018,04,26,13,42,19.70
2018,04,26,13,43,19.90
2018,04,26,13,44,20.10
2018,04,26,13,45,20.20
2018,04,26,13,46,20.20
2018,04,26,13,47,20.20
2018,04,26,13,48,20.20
2018,04,26,13,49,20.20
2018,04,26,13,50,20.20
2018,04,26,13,51,20.20
2018,04,26,13,52,20.20
2018,04,26,13,53,20.10
2018,04,26,13,54,20.00
2018,04,26,13,55,19.90
2018,04,26,13,56,19.80
2018,04,26,13,57,19.70
2018,04,26,13,58,19.70
2018,04,26,13,59,19.70
2018,04,26,14,00,19.70
2018,04,26,14,01,19.70
2018,04,26,14,02,19.80
2018,04,26,14,03,19.80
2018,04,26,14,04,19.80
2018,04,26,14,05,19.70
2018,04,26,14,06,19.70
2018,04,26,14,07,19.60
2018,04,26,14,08,19.60
2018,04,26,14,09,19.60
2018,04,26,14,10,19.60
2018,04,26,14,11,19.70
2018,04,26,14,12,19.70
2018,04,26,14,13,19.80
2018,04,26,14,14,19.80
2018,04,26,14,15,19.70
2018,04,26,14,16,19.70
2018,04,26,14,17,19.60
2018,04,26,14,18,19.50
2018,04,26,14,19,19.50
2018,04,26,14,20,19.50
2018,04,26,14,21,19.60
2018,04,26,14,22,19.80
2018,04,26,14,23,19.90
2018,04,26,14,24,20.00
2018,04,26,14,25,20.10
2018,04,26,14,26,20.10
2018,04,26,14,27,20.20
2018,04,26,14,28,20.20
2018,04,26,14,29,20.20
2018,04,26,14,30,20.10
2018,04,26,14,31,20.10
2018,04,26,14,32,20.20
2018,04,26,14,33,20.20
2018,04,26,14,34,20.20
2018,04,26,14,35,20.20
2018,04,26,14,36,20.20
2018,04,26,14,37,20.30
2018,04,26,14,38,20.30
2018,04,26,14,39,20.30
2018,04,26,14,40,20.30
2018,04,26,14,41,20.20
2018,04,26,14,42,20.20
2018,04,26,14,43,20.10
2018,04,26,14,44,20.20
2018,04,26,14,45,20.20
2018,04,26,14,46,20.30
2018,04,26,14,47,20.20
2018,04,26,14,48,20.20
2018,04,26,14,49,20.10
2018,04,26,14,50,20.10
2018,04,26,14,51,20.10
2018,04,26,14,52,20.20
2018,04,26,14,53,20.20
2018,04,26,14,54,20.30
2018,04,26,14,55,20.50
2018,04,26,14,56,20.50
2018,04,26,14,57,20.50
2018,04,26,14,58,20.50
2018,04,26,14,59,20.50
2018,04,26,15,00,20.40
2018,04,26,15,01,20.40
2018,04,26,15,02,20.40
2018,04,26,15,03,20.50
2018,04,26,15,04,20.50
2018,04,26,15,05,20.50
2018,04,26,15,06,20.60
2018,04,26,15,07,20.60
2018,04,26,15,08,20.70
2018,04,26,15,09,20.80
2018,04,26,15,10,20.80
2018,04,26,15,11,20.80
2018,04,26,15,12,20.90
2018,04,26,15,13,21.00
2018,04,26,15,14,21.00
2018,04,26,15,15,21.00
2018,04,26,15,16,20.90
2018,04,26,15,17,20.80
2018,04,26,15,18,20.90
2018,04,26,15,19,20.90
2018,04,26,15,20,20.90
2018,04,26,15,21,20.80
2018,04,26,15,22,20.80
2018,04,26,15,23,21.00
2018,04,26,15,24,21.10
2018,04,26,15,25,21.20
2018,04,26,15,26,21.20
2018,04,26,15,27,21.20
2018,04,26,15,28,21.30
2018,04,26,15,29,21.40
2018,04,26,15,30,21.50
2018,04,26,15,31,21.50
2018,04,26,15,32,21.60
2018,04,26,15,33,21.60
2018,04,26,15,34,21.50
2018,04,26,15,35,21.40
2018,04,26,15,36,21.40
2018,04,26,15,37,21.30
2018,04,26,15,38,21.30
2018,04,26,15,39,21.30
2018,04,26,15,40,21.40
2018,04,26,15,41,21.40
2018,04,26,15,42,21.50
2018,04,26,15,43,21.60
2018,04,26,15,44,21.60
2018,04,26,15,45,21.60
2018,04,26,15,46,21.50
2018,04,26,15,47,21.40
2018,04,26,15,48,21.40
2018,04,26,15,49,21.30
2018,04,26,15,50,21.30
2018,04,26,15,51,21.20
2018,04,26,15,52,21.20
2018,04,26,15,53,21.20
2018,04,26,15,54,21.20
2018,04,26,15,55,21.30
2018,04,26,15,56,21.40
2018,04,26,15,57,21.50
2018,04,26,15,58,21.60
2018,04,26,15,59,21.60
2018,04,26,16,00,21.50
2018,04,26,16,01,21.40
2018,04,26,16,02,21.40
2018,04,26,16,03,21.40
2018,04,26,16,04,21.40
2018,04,26,16,05,21.30
2018,04,26,16,06,21.30
2018,04,26,16,07,21.30
2018,04,26,16,08,21.30
2018,04,26,16,09,21.30
2018,04,26,16,10,21.30
2018,04,26,16,11,21.30
2018,04,26,16,12,21.50
2018,04,26,16,13,21.70
2018,04,26,16,14,21.80
2018,04,26,16,15,21.90
2018,04,26,16,16,21.90
2018,04,26,16,17,22.00
2018,04,26,16,18,22.00
2018,04,26,16,19,22.10
2018,04,26,16,20,22.00
2018,04,26,16,21,22.10
2018,04,26,16,22,22.10
2018,04,26,16,23,22.10
2018,04,26,16,24,22.10
2018,04,26,16,25,22.20
2018,04,26,16,26,22.20
2018,04,26,16,27,22.20
2018,04,26,16,28,22.30
2018,04,26,16,29,22.30
2018,04,26,16,30,22.30
2018,04,26,16,31,22.30
2018,04,26,16,32,22.30
2018,04,26,16,33,22.30
2018,04,26,16,34,22.30
2018,04,26,16,35,22.30
2018,04,26,16,36,22.40
2018,04,26,16,37,22.40
2018,04,26,16,38,22.40
2018,04,26,16,39,22.40
2018,04,26,16,40,22.50
2018,04,26,16,41,22.50
2018,04,26,16,42,22.60
2018,04,26,16,43,22.70
2018,04,26,16,44,22.80
2018,04,26,16,45,22.80
2018,04,26,16,46,22.90
2018,04,26,16,47,22.90
2018,04,26,16,48,23.00
2018,04,26,16,49,22.90
2018,04,26,16,50,23.00
2018,04,26,16,51,23.00
2018,04,26,16,52,22.90
2018,04,26,16,53,22.90
2018,04,26,16,54,22.80
2018,04,26,16,55,22.80
2018,04,26,16,56,22.80
2018,04,26,16,57,22.70
2018,04,26,16,58,22.70
2018,04,26,16,59,22.70
2018,04,26,17,00,22.70
2018,04,26,17,01,22.70
2018,04,26,17,02,22.80
2018,04,26,17,03,22.80
2018,04,26,17,04,22.90
2018,04,26,17,05,22.90
2018,04,26,17,06,22.90
2018,04,26,17,07,22.90
2018,04,26,17,08,22.90
2018,04,26,17,09,23.00
2018,04,26,17,10,23.00
2018,04,26,17,11,22.90
2018,04,26,17,12,22.90
2018,04,26,17,13,22.90
2018,04,26,17,14,22.90
2018,04,26,17,15,22.90
2018,04,26,17,16,23.00
2018,04,26,17,17,23.00
2018,04,26,17,18,23.10
2018,04,26,17,19,23.10
2018,04,26,17,20,23.10
2018,04,26,17,21,23.10
2018,04,26,17,22,23.00
2018,04,26,17,23,22.90
2018,04,26,17,24,22.80
2018,04,26,17,25,22.80
2018,04,26,17,26,22.70
2018,04,26,17,27,22.60
2018,04,26,17,28,22.50
2018,04,26,17,29,22.50
2018,04,26,17,30,22.40
2018,04,26,17,31,22.40
2018,04,26,17,32,22.40
2018,04,26,17,33,22.30
2018,04,26,17,34,22.20